Location: D�derode
(51.8092°N, 10.1065°E)
Time: 00:58:56
(UTC+00:00)

Cosmos 1812 - Pass Details

Date: 19 April 2021
Orbit: 516 x 519 km, 82.5° (Epoch: 10 May)

Event Time Altitude Azimuth Distance (km) Brightness Sun altitude
Exits shadow 00:45:17 23° 306° (NW) 1,160 4.5 -24.3°
Drops below altitude 10° 00:47:53 10° 347° (NNW) 1,766 6.1 -24.1°
Sets 00:50:22 0° 2° (N) 2,660 7.4 -24.0°
